Simultaneous Nadir Overpasses (SNOs) Predictions

Prediction of SNOs between GOES-17 and AQUA Satellite Orbit:

Table of predicted SNOs for the next 14.0 days since TLE Epoch: 4/27/2024
Index Date Time (GOES-17) GOES-17 Lat,Lon AQUA Lat,Lon Distance(km) Time Diff (sec)
1 04/27/2024 09:11:26 -0.00,-104.71 0.24,-105.76 120.37 80
2 04/29/2024 08:52:35 0.00,-104.70 -0.63,-101.81 329.31 80
3 04/29/2024 21:12:56 -0.00,-104.69 -0.45,-106.73 232.47 80
4 05/01/2024 20:59:23 -0.00,-104.68 0.42,-102.77 218.15 80
5 05/02/2024 09:19:35 -0.00,-104.70 0.61,-107.66 336.92 80
6 05/04/2024 09:00:39 -0.00,-104.69 -0.20,-103.68 114.93 80
7 05/04/2024 21:21:00 0.00,-104.68 -0.82,-108.61 446.41 80
8 05/06/2024 21:07:22 0.00,-104.68 -0.01,-104.62 6.81 80
9 05/08/2024 20:51:03 0.01,-104.68 0.85,-100.63 459.81 80
10 05/09/2024 09:11:15 -0.01,-104.69 0.16,-105.52 94.54 80
